State College, PA

3:40 PM EDT on June 22, 2017 (GMT -0400)
University Park

Weather History for KUNV - November, 2011

Change the Weather History Date:

Thursday, November 17, 2011

  Actual Average Record
Temperature  
Mean Temperature 36 °F -  
Max Temperature 41 °F 46 °F 71 °F (1928)
Min Temperature 30 °F 32 °F 10 °F (1933)
Degree Days  
Heating Degree Days 30    
Moisture  
Dew Point 24 °F    
Average Humidity 61    
Maximum Humidity 75    
Minimum Humidity 48    
Precipitation  
Precipitation 0.00 in - - ()
Sea Level Pressure  
Sea Level Pressure 29.98 in    
Wind  
Wind Speed 8 mph (WNW)    
Max Wind Speed 29 mph    
Max Gust Speed 28 mph    
Visibility 10 miles    
Events Snow    
Averages and records for this station are not official NWS values.
T = Trace of Precipitation, MM = Missing Value Source: NWS Daily Summary

Daily Weather History Graph

Daily Weather History Graph

Search for Another Location

Airport or City:

Trip Planner

Search our weather history database for the weather conditions in past years. The results will help you decide how hot, cold, wet, or windy it might be!

Date:

Astronomy

Nov. 17, 2011 Rise Set
Actual Time 7:00 AM EST 4:51 PM EST
Civil Twilight 6:30 AM EST 5:21 PM EST
Nautical Twilight 5:57 AM EST 5:54 PM EST
Astronomical Twilight 5:25 AM EST 6:26 PM EST
Moon 11:10 PM EST (11/17) 12:07 PM EST (11/17)
Length of Visible Light 10h 50m
Length of Day
9h 51m
Waning Gibbous, 60% of the Moon is Illuminated
Nov 17
Waning Gibbous
Nov 18
Last Quarter
Nov 25
New
Dec 2
First Quarter
Dec 10
Full

Hourly Weather History & Observations

Time (EST) Temp. Windchill Dew Point Humidity Pressure Visibility Wind Dir Wind Speed Gust Speed Precip Events Conditions
12:15 AM 41.0 °F 36.4 °F 30.2 °F 65% 29.92 in 10.0 mi NW 6.9 mph - N/A   Overcast
12:35 AM 41.0 °F 35.8 °F 30.2 °F 65% 29.91 in 10.0 mi NNW 8.1 mph - N/A   Overcast
12:55 AM 41.0 °F 36.4 °F 28.4 °F 61% 29.92 in 10.0 mi NW 6.9 mph - N/A   Overcast
1:15 AM 41.0 °F 34.7 °F 26.6 °F 57% 29.92 in 10.0 mi WNW 10.4 mph - N/A   Overcast
1:35 AM 41.0 °F 37.1 °F 26.6 °F 57% 29.92 in 10.0 mi NW 5.8 mph - N/A   Overcast
1:55 AM 39.2 °F 34.2 °F 26.6 °F 61% 29.93 in 10.0 mi NNW 6.9 mph - N/A   Mostly Cloudy
2:15 AM 39.2 °F 35.9 °F 26.6 °F 61% 29.93 in 10.0 mi NW 4.6 mph - N/A   Clear
2:35 AM 39.2 °F 35.0 °F 26.6 °F 61% 29.94 in 10.0 mi NNW 5.8 mph - N/A   Clear
3:15 AM 39.2 °F 35.9 °F 26.6 °F 61% 29.94 in 10.0 mi NW 4.6 mph - N/A   Clear
3:35 AM 39.2 °F 35.9 °F 26.6 °F 61% 29.94 in 10.0 mi NW 4.6 mph - N/A   Clear
3:55 AM 37.4 °F 34.9 °F 26.6 °F 65% 29.94 in 10.0 mi NW 3.5 mph - N/A   Clear
4:15 AM 37.4 °F - 26.6 °F 65% 29.94 in 10.0 mi Calm Calm - N/A   Clear
4:35 AM 37.4 °F 34.9 °F 26.6 °F 65% 29.93 in 10.0 mi NW 3.5 mph - N/A   Clear
4:55 AM 37.4 °F 34.9 °F 26.6 °F 65% 29.94 in 10.0 mi WNW 3.5 mph - N/A   Clear
5:53 AM 35.6 °F 32.8 °F 28.4 °F 75% 29.94 in 10.0 mi WNW 3.5 mph - N/A   Clear
6:53 AM 35.6 °F 31.7 °F 26.6 °F 70% 29.95 in 10.0 mi NW 4.6 mph - N/A   Clear
7:53 AM 35.6 °F 29.2 °F 26.6 °F 70% 29.96 in 10.0 mi NNW 8.1 mph - N/A   Clear
8:53 AM 37.4 °F 30.8 °F 28.4 °F 70% 29.98 in 10.0 mi WNW 9.2 mph - N/A   Scattered Clouds
9:53 AM 37.4 °F 30.8 °F 24.8 °F 60% 30.00 in 10.0 mi WNW 9.2 mph - N/A   Scattered Clouds
10:53 AM 35.6 °F 30.7 °F 23.0 °F 60% 29.99 in 10.0 mi WNW 5.8 mph - N/A   Overcast
11:53 AM 37.4 °F 30.8 °F 24.8 °F 60% 29.95 in 10.0 mi WNW 9.2 mph - N/A   Overcast
12:53 PM 37.4 °F 29.8 °F 24.8 °F 60% 29.94 in 10.0 mi WNW 11.5 mph - N/A   Overcast
1:53 PM 37.4 °F 30.3 °F 24.8 °F 60% 29.93 in 10.0 mi WNW 10.4 mph - N/A   Overcast
3:53 PM 37.4 °F 27.5 °F 19.4 °F 48% 29.94 in 10.0 mi West 18.4 mph 24.2 mph N/A   Mostly Cloudy
4:53 PM 33.8 °F 25.3 °F 23.0 °F 65% 29.97 in 10.0 mi West 11.5 mph - N/A   Scattered Clouds
5:50 PM 33.8 °F 25.3 °F 21.2 °F 60% 30.00 in 10.0 mi West 11.5 mph - N/A   Clear
5:59 PM 33.8 °F 20.3 °F 21.2 °F 60% 30.00 in 3.0 mi West 28.8 mph - N/A Snow Light Snow
6:53 PM 32.0 °F 23.0 °F 23.0 °F 69% 30.03 in 10.0 mi West 11.5 mph - N/A   Clear
7:53 PM 32.0 °F 23.0 °F 23.0 °F 69% 30.04 in 10.0 mi WSW 11.5 mph - N/A   Scattered Clouds
8:53 PM 32.0 °F 23.0 °F 21.2 °F 64% 30.06 in 10.0 mi WSW 11.5 mph - N/A   Clear
9:15 PM 32.0 °F 22.5 °F 19.4 °F 60% 30.06 in 10.0 mi West 12.7 mph 19.6 mph N/A   Clear
9:35 PM 32.0 °F 21.2 °F 17.6 °F 55% 30.07 in 10.0 mi West 16.1 mph 21.9 mph N/A   Clear
9:55 PM 32.0 °F 20.5 °F 14.0 °F 48% 30.07 in 10.0 mi West 18.4 mph 27.6 mph N/A   Clear
10:55 PM 32.0 °F 23.0 °F 15.8 °F 51% 30.11 in 10.0 mi West 11.5 mph 24.2 mph N/A   Scattered Clouds
11:35 PM 30.2 °F 18.9 °F 15.8 °F 55% 30.12 in 10.0 mi West 16.1 mph 26.5 mph N/A   Mostly Cloudy
11:55 PM 32.0 °F 21.6 °F 15.8 °F 51% 30.14 in 10.0 mi West 15.0 mph 24.2 mph N/A   Mostly Cloudy